Glendale Luke AFB, AZ

10:10 PM MST on December 15, 2019 (GMT -0700)
Luke Air Force Base

Weather History for KLUF - November, 2019

Change the Weather History Date:

Saturday, November 16, 2019

  Actual Average Record
Temperature  
Mean Temperature 66 °F -  
Max Temperature 79 °F 75 °F 89 °F (1936)
Min Temperature 53 °F 42 °F 31 °F (1955)
Cooling Degree Days 1    
Growing Degree Days 16 (Base 50)    
Moisture  
Dew Point 36 °F    
Average Humidity 37    
Maximum Humidity 53    
Minimum Humidity 16    
Precipitation  
Precipitation 0.00 in - - ()
Sea Level Pressure  
Sea Level Pressure 29.93 in    
Wind  
Wind Speed 4 mph (North)    
Max Wind Speed 10 mph    
Max Gust Speed -    
Visibility 10 miles    
Events      
Averages and records for this station are not official NWS values.
T = Trace of Precipitation, MM = Missing Value Source: NWS Daily Summary

Daily Weather History Graph

Daily Weather History Graph

Search for Another Location

Airport or City:

Astronomy

Nov. 16, 2019 Rise Set
Actual Time 7:01 AM MST 5:26 PM MST
Civil Twilight 6:35 AM MST 5:52 PM MST
Nautical Twilight 6:05 AM MST 6:22 PM MST
Astronomical Twilight 5:35 AM MST 6:52 PM MST
Moon 9:07 PM MST 10:54 AM MST
Length of Visible Light 11h 17m
Length of Day
10h 24m
Waning Gibbous, 82% of the Moon is Illuminated
Nov 16
Waning Gibbous
Nov 19
Last Quarter
Nov 26
New
Dec 3
First Quarter
Dec 11
Full

Hourly Weather History & Observations

Time (MST) Temp. Dew Point Humidity Pressure Visibility Wind Dir Wind Speed Gust Speed Precip Events Conditions
12:58 AM 57.7 °F 36.0 °F 44% 29.93 in 10.0 mi Calm Calm - N/A   Clear
1:58 AM 57.4 °F 35.1 °F 43% 29.94 in 10.0 mi North 4.6 mph - N/A   Clear
2:56 AM 55.4 °F 34.9 °F 46% 29.94 in 10.0 mi North 10.4 mph - N/A   Clear
3:58 AM 55.4 °F 34.3 °F 45% 29.93 in 10.0 mi North 10.4 mph - N/A   Clear
4:58 AM 55.2 °F 34.9 °F 46% 29.93 in 10.0 mi Calm Calm - N/A   Clear
5:58 AM 55.4 °F 35.4 °F 47% 29.94 in 10.0 mi Calm Calm - N/A   Partly Cloudy
6:58 AM 53.8 °F 37.0 °F 53% 29.95 in 10.0 mi North 4.6 mph - N/A   Clear
7:58 AM 54.1 °F 36.0 °F 50% 29.97 in 10.0 mi NNW 3.5 mph - N/A   Clear
8:58 AM 59.7 °F 38.3 °F 45% 29.98 in 10.0 mi NNW 8.1 mph - N/A   Partly Cloudy
9:58 AM 66.6 °F 37.4 °F 34% 29.99 in 10.0 mi North 5.8 mph - N/A   Partly Cloudy
10:58 AM 70.2 °F 35.6 °F 28% 29.98 in 9.0 mi Calm Calm - N/A   Clear
11:58 AM 73.9 °F 34.9 °F 24% 29.95 in 10.0 mi Calm Calm - N/A   Partly Cloudy
12:58 PM 75.2 °F 36.0 °F 24% 29.92 in 10.0 mi Calm Calm - N/A   Clear
1:58 PM 77.2 °F 35.4 °F 22% 29.90 in 10.0 mi Calm Calm - N/A   Clear
2:58 PM 79.0 °F 30.4 °F 17% 29.88 in 10.0 mi South 4.6 mph - N/A   Clear
3:58 PM 79.9 °F 29.7 °F 16% 29.88 in 10.0 mi Calm Calm - N/A   Clear
4:58 PM 78.3 °F 29.8 °F 17% 29.88 in 10.0 mi Calm Calm - N/A   Clear
5:58 PM 70.9 °F 38.7 °F 31% 29.90 in 9.0 mi Calm Calm - N/A   Clear
6:58 PM 64.9 °F 38.7 °F 38% 29.92 in 10.0 mi NNW 6.9 mph - N/A   Clear
7:58 PM 61.7 °F 39.0 °F 43% 29.93 in 10.0 mi Calm Calm - N/A   Clear
8:58 PM 60.4 °F 38.5 °F 44% 29.94 in 10.0 mi North 6.9 mph - N/A   Clear
9:18 PM 60.8 °F 37.4 °F 42% 29.94 in 4.0 mi NNW 5.8 mph - N/A   Haze
9:58 PM 58.8 °F 36.3 °F 43% 29.95 in 9.0 mi North 10.4 mph - N/A   Clear
10:58 PM 57.6 °F 36.3 °F 45% 29.94 in 10.0 mi North 9.2 mph - N/A   Clear
11:58 PM 55.8 °F 36.3 °F 48% 29.96 in 10.0 mi North 5.8 mph - N/A   Clear